�������l�o���
Date,Time,MP-1(��Sv/h),MP-2(��Sv/h),MP-3(��Sv/h),MP-4(��Sv/h),MP-5(��Sv/h),MP-6(��Sv/h),MP-7(��Sv/h),MP-8(��Sv/h),����,����(m/s),���J
2018/09/12,00:00,0.778,1.158,0.815,1.451,1.043,0.456,0.801,0.761,�k,3.4,��
2018/09/12,00:10,0.774,1.160,0.816,1.451,1.045,0.456,0.801,0.761,�k,3.4,��
2018/09/12,00:20,0.778,1.158,0.816,1.453,1.044,0.458,0.803,0.762,�k,2.9,��
2018/09/12,00:30,0.778,1.158,0.817,1.449,1.043,0.457,0.802,0.762,�k,3.4,��
2018/09/12,00:40,0.775,1.159,0.815,1.454,1.044,0.457,0.800,0.762,�k�k��,3.1,��
2018/09/12,00:50,0.779,1.160,0.816,1.451,1.043,0.456,0.802,0.761,�k�k��,3.4,��
2018/09/12,01:00,0.778,1.158,0.818,1.452,1.042,0.456,0.802,0.761,�k,3.3,��
2018/09/12,01:10,0.777,1.158,0.817,1.453,1.043,0.459,0.803,0.761,�k�k��,2.5,��
2018/09/12,01:20,0.777,1.157,0.816,1.452,1.043,0.459,0.802,0.760,�k�k��,2.3,��
2018/09/12,01:30,0.779,1.160,0.817,1.452,1.042,0.456,0.802,0.761,�k�k��,3.2,��
2018/09/12,01:40,0.778,1.158,0.816,1.453,1.042,0.456,0.802,0.762,�k,2.2,��
2018/09/12,01:50,0.778,1.159,0.817,1.452,1.045,0.457,0.801,0.762,�k,2.3,��
2018/09/12,02:00,0.775,1.159,0.815,1.451,1.045,0.457,0.800,0.762,�k�k��,2.6,��
2018/09/12,02:10,0.775,1.159,0.818,1.452,1.042,0.458,0.801,0.762,�k,2.5,��
2018/09/12,02:20,0.777,1.160,0.816,1.452,1.042,0.458,0.803,0.761,�k,3.1,��
2018/09/12,02:30,0.776,1.160,0.815,1.451,1.046,0.457,0.802,0.761,�k,3.2,��
2018/09/12,02:40,0.777,1.158,0.815,1.452,1.043,0.457,0.801,0.761,�k�k��,2.3,��
2018/09/12,02:50,0.776,1.158,0.814,1.450,1.045,0.457,0.800,0.761,�k�k��,2.0,��
2018/09/12,03:00,0.776,1.158,0.816,1.452,1.045,0.458,0.801,0.762,�k��,2.9,��
2018/09/12,03:10,0.775,1.157,0.815,1.453,1.045,0.458,0.803,0.760,�k�k��,2.3,��
2018/09/12,03:20,0.775,1.157,0.816,1.450,1.046,0.458,0.803,0.759,�k��,2.5,��
2018/09/12,03:30,0.774,1.158,0.816,1.450,1.046,0.457,0.803,0.760,�k��,2.6,��
2018/09/12,03:40,0.776,1.157,0.816,1.450,1.044,0.457,0.803,0.760,-,CALM,��
2018/09/12,03:50,0.776,1.159,0.817,1.449,1.042,0.457,0.803,0.760,�k�k��,2.0,��
2018/09/12,04:00,0.776,1.157,0.815,1.454,1.044,0.459,0.804,0.762,-,CALM,��
2018/09/12,04:10,0.777,1.160,0.815,1.451,1.046,0.456,0.802,0.762,�k�k��,1.7,��
2018/09/12,04:20,0.776,1.157,0.815,1.450,1.044,0.456,0.803,0.761,-,CALM,��
2018/09/12,04:30,0.776,1.157,0.815,1.452,1.044,0.458,0.800,0.761,�k,2.5,��
2018/09/12,04:40,0.775,1.161,0.815,1.454,1.045,0.458,0.801,0.761,-,CALM,��
2018/09/12,04:50,0.777,1.159,0.816,1.453,1.045,0.458,0.801,0.761,-,CALM,��
2018/09/12,05:00,0.776,1.157,0.818,1.452,1.044,0.456,0.801,0.761,-,CALM,��
2018/09/12,05:10,0.776,1.158,0.817,1.453,1.044,0.459,0.802,0.760,-,CALM,��
2018/09/12,05:20,0.778,1.158,0.815,1.455,1.043,0.457,0.802,0.762,�k�k��,2.5,��
2018/09/12,05:30,0.777,1.159,0.818,1.452,1.045,0.458,0.802,0.761,-,CALM,��
2018/09/12,05:40,0.776,1.159,0.816,1.453,1.045,0.458,0.801,0.760,-,CALM,��
2018/09/12,05:50,0.778,1.160,0.817,1.452,1.046,0.458,0.802,0.762,-,CALM,��
2018/09/12,06:00,0.776,1.159,0.815,1.453,1.044,0.458,0.801,0.762,-,CALM,��
2018/09/12,06:10,0.775,1.157,0.815,1.455,1.045,0.458,0.801,0.762,�k�k��,3.0,��
2018/09/12,06:20,0.775,1.157,0.817,1.454,1.042,0.457,0.803,0.761,-,CALM,��
2018/09/12,06:30,0.776,1.157,0.818,1.454,1.044,0.459,0.802,0.761,-,CALM,��
2018/09/12,06:40,0.776,1.159,0.816,1.454,1.045,0.458,0.804,0.763,-,CALM,��
2018/09/12,06:50,0.777,1.158,0.816,1.454,1.044,0.457,0.803,0.762,-,CALM,��
2018/09/12,07:00,0.777,1.158,0.817,1.454,1.044,0.456,0.802,0.761,-,CALM,��
2018/09/12,07:10,0.775,1.160,0.817,1.455,1.046,0.459,0.803,0.762,-,CALM,��
2018/09/12,07:20,0.777,1.160,0.818,1.456,1.048,0.458,0.801,0.761,-,CALM,��
2018/09/12,07:30,0.779,1.159,0.817,1.453,1.044,0.458,0.802,0.763,-,CALM,��
2018/09/12,07:40,0.780,1.162,0.819,1.456,1.047,0.458,0.801,0.764,-,CALM,��
2018/09/12,07:50,0.778,1.160,0.819,1.456,1.047,0.457,0.802,0.763,-,CALM,��
2018/09/12,08:00,0.780,1.161,0.818,1.456,1.046,0.458,0.801,0.763,-,CALM,��
2018/09/12,08:10,0.779,1.164,0.818,1.454,1.047,0.457,0.802,0.761,-,CALM,��
2018/09/12,08:20,0.779,1.162,0.819,1.454,1.046,0.458,0.801,0.763,-,CALM,��
2018/09/12,08:30,0.778,1.157,0.817,1.454,1.049,0.456,0.801,0.762,-,CALM,��
2018/09/12,08:40,0.776,1.159,0.820,1.458,1.045,0.458,0.802,0.762,-,CALM,��
2018/09/12,08:50,0.778,1.158,0.818,1.455,1.045,0.456,0.801,0.762,-,CALM,��
2018/09/12,09:00,0.778,1.159,0.820,1.455,1.046,0.455,0.802,0.760,-,CALM,��
2018/09/12,09:10,0.777,1.156,0.819,1.455,1.044,0.458,0.802,0.762,-,CALM,��
2018/09/12,09:20,0.778,1.154,0.817,1.455,1.045,0.457,0.803,0.760,-,CALM,��
2018/09/12,09:30,0.776,1.156,0.819,1.455,1.045,0.457,0.802,0.761,-,CALM,��
2018/09/12,09:40,0.777,1.157,0.817,1.455,1.044,0.455,0.803,0.763,-,CALM,��
2018/09/12,09:50,0.777,1.155,0.819,1.458,1.045,0.457,0.803,0.760,-,CALM,��
2018/09/12,10:00,0.777,1.153,0.819,1.455,1.047,0.457,0.803,0.761,-,CALM,��
2018/09/12,10:10,0.775,1.154,0.816,1.457,1.046,0.457,0.803,0.761,-,CALM,��
2018/09/12,10:20,0.778,1.154,0.818,1.458,1.047,0.457,0.804,0.759,-,CALM,��
2018/09/12,10:30,0.776,1.157,0.818,1.457,1.049,0.458,0.804,0.760,-,CALM,��
2018/09/12,10:40,0.778,1.157,0.818,1.457,1.047,0.456,0.804,0.761,-,CALM,��
2018/09/12,10:50,0.780,1.158,0.814,1.457,1.052,0.456,0.804,0.760,-,CALM,��
2018/09/12,11:00,0.780,1.163,0.819,1.453,1.048,0.458,0.804,0.760,-,CALM,��
2018/09/12,11:10,0.778,1.163,0.819,1.459,1.045,0.458,0.806,0.763,-,CALM,��
2018/09/12,11:20,0.780,1.164,0.819,1.456,1.051,0.459,0.804,0.762,-,CALM,��
2018/09/12,11:30,0.781,1.165,0.820,1.457,1.052,0.458,0.803,0.763,-,CALM,��
2018/09/12,11:40,0.777,1.163,0.818,1.458,1.053,0.461,0.805,0.763,-,-,��
2018/09/12,11:50,0.781,1.166,0.821,1.456,1.055,0.459,0.805,0.762,-,-,��
2018/09/12,12:00,0.781,1.166,0.822,1.459,1.055,0.459,0.805,0.761,-,-,��
2018/09/12,12:10,0.781,1.166,0.819,1.459,1.054,0.459,0.806,0.762,-,-,��
2018/09/12,12:20,0.781,1.168,0.820,1.460,1.055,0.460,0.805,0.761,-,-,��
2018/09/12,12:30,0.781,1.166,0.821,1.459,1.056,0.460,0.804,0.761,-,-,��
2018/09/12,12:40,0.781,1.166,0.822,1.461,1.055,0.459,0.807,0.761,-,-,��
2018/09/12,12:50,0.782,1.165,0.819,1.460,1.055,0.460,0.805,0.763,-,-,��
2018/09/12,13:00,0.781,1.166,0.823,1.462,1.055,0.460,0.805,0.763,-,-,��
2018/09/12,13:10,0.781,1.168,0.820,1.461,1.056,0.460,0.806,0.761,-,-,��
2018/09/12,13:20,0.781,1.168,0.821,1.461,1.057,0.459,0.806,0.763,-,-,��
2018/09/12,13:30,0.783,1.170,0.820,1.459,1.055,0.460,0.804,0.763,��,2.2,��
2018/09/12,13:40,0.783,1.168,0.822,1.458,1.055,0.460,0.808,0.762,���k��,2.3,��
2018/09/12,13:50,0.785,1.167,0.823,1.461,1.057,0.460,0.806,0.762,���k��,2.3,��
2018/09/12,14:00,0.783,1.171,0.823,1.462,1.057,0.460,0.807,0.763,��,2.6,��
2018/09/12,14:10,0.781,1.169,0.823,1.464,1.057,0.460,0.806,0.763,���k��,2.5,��
2018/09/12,14:20,0.783,1.172,0.825,1.460,1.058,0.459,0.804,0.763,���k��,2.3,��
2018/09/12,14:30,0.782,1.167,0.823,1.462,1.058,0.459,0.806,0.761,���k��,4.0,��
2018/09/12,14:40,0.784,1.170,0.822,1.462,1.060,0.459,0.807,0.764,���k��,5.1,��
2018/09/12,14:50,0.784,1.172,0.822,1.461,1.060,0.460,0.804,0.763,��,5.0,��
2018/09/12,15:00,0.784,1.174,0.823,1.463,1.058,0.460,0.805,0.764,���k��,4.6,��
2018/09/12,15:10,0.782,1.172,0.822,1.462,1.058,0.460,0.807,0.762,��,4.1,��
2018/09/12,15:20,0.782,1.172,0.823,1.463,1.058,0.460,0.805,0.763,��,4.6,��
2018/09/12,15:30,0.784,1.171,0.822,1.464,1.058,0.459,0.806,0.762,��,5.0,��
2018/09/12,15:40,0.783,1.172,0.821,1.465,1.058,0.460,0.805,0.763,���k��,4.1,��
2018/09/12,15:50,0.783,1.174,0.821,1.463,1.059,0.460,0.807,0.762,��,4.6,��
2018/09/12,16:00,0.786,1.173,0.820,1.464,1.058,0.460,0.806,0.764,��,4.4,��
2018/09/12,16:10,0.782,1.173,0.823,1.465,1.059,0.460,0.805,0.762,��,4.4,��
2018/09/12,16:20,0.784,1.175,0.822,1.465,1.060,0.461,0.805,0.762,��,2.9,��
2018/09/12,16:30,0.782,1.176,0.822,1.463,1.060,0.459,0.805,0.764,���쓌,3.4,��
2018/09/12,16:40,0.781,1.176,0.825,1.464,1.058,0.461,0.804,0.763,���쓌,3.1,��
2018/09/12,16:50,0.782,1.177,0.824,1.464,1.059,0.461,0.805,0.764,���쓌,3.1,��
2018/09/12,17:00,0.782,1.176,0.826,1.465,1.060,0.460,0.805,0.762,���쓌,3.0,��
2018/09/12,17:10,0.783,1.176,0.826,1.466,1.061,0.460,0.807,0.762,���쓌,2.8,��
2018/09/12,17:20,0.783,1.178,0.828,1.465,1.056,0.462,0.806,0.764,�쓌,2.9,��
2018/09/12,17:30,0.783,1.177,0.826,1.469,1.058,0.461,0.806,0.765,���쓌,2.0,��
2018/09/12,17:40,0.785,1.177,0.829,1.468,1.060,0.463,0.806,0.764,���쓌,2.5,��
2018/09/12,17:50,0.785,1.181,0.827,1.468,1.059,0.462,0.805,0.765,���쓌,2.5,��
2018/09/12,18:00,0.786,1.181,0.828,1.465,1.059,0.461,0.805,0.764,��,2.3,��
2018/09/12,18:10,0.786,1.180,0.827,1.465,1.062,0.461,0.806,0.766,���쓌,2.6,��
2018/09/12,18:20,0.786,1.179,0.828,1.466,1.059,0.462,0.807,0.768,�쓌,2.2,��
2018/09/12,18:30,0.787,1.180,0.828,1.468,1.064,0.461,0.806,0.765,�쓌,2.3,�L
2018/09/12,18:40,0.786,1.180,0.828,1.468,1.063,0.460,0.808,0.766,��,1.7,�L
2018/09/12,18:50,0.787,1.180,0.827,1.467,1.061,0.461,0.806,0.766,�쓌,2.6,�L
2018/09/12,19:00,0.787,1.181,0.832,1.465,1.063,0.461,0.807,0.763,��,2.0,��
2018/09/12,19:10,0.786,1.180,0.829,1.469,1.065,0.462,0.808,0.764,��,1.5,��
2018/09/12,19:20,0.788,1.182,0.829,1.469,1.063,0.462,0.807,0.764,��쓌,2.2,��
2018/09/12,19:30,0.787,1.179,0.827,1.469,1.064,0.463,0.807,0.764,�쓌,1.5,��
2018/09/12,19:40,0.787,1.180,0.828,1.469,1.062,0.463,0.809,0.765,�쓌,2.0,��
2018/09/12,19:50,0.786,1.183,0.829,1.465,1.064,0.462,0.809,0.767,��쓌,1.9,��
2018/09/12,20:00,0.786,1.181,0.827,1.468,1.063,0.463,0.807,0.767,��쓌,1.4,��
2018/09/12,20:10,0.787,1.181,0.829,1.465,1.064,0.462,0.808,0.766,��쓌,1.7,��
2018/09/12,20:20,0.787,1.181,0.828,1.469,1.064,0.462,0.807,0.766,��,1.9,��
2018/09/12,20:30,0.787,1.182,0.826,1.466,1.064,0.462,0.807,0.765,��,1.7,��
2018/09/12,20:40,0.787,1.181,0.827,1.467,1.063,0.462,0.808,0.764,��,1.7,��
2018/09/12,20:50,0.787,1.179,0.828,1.472,1.062,0.464,0.806,0.766,��,1.7,��
2018/09/12,21:00,0.788,1.180,0.827,1.468,1.062,0.463,0.807,0.765,��,1.9,��
2018/09/12,21:10,0.785,1.181,0.827,1.471,1.062,0.462,0.808,0.766,��,1.5,��
2018/09/12,21:20,0.786,1.180,0.828,1.467,1.064,0.463,0.807,0.765,��,1.4,��
2018/09/12,21:30,0.785,1.179,0.827,1.470,1.062,0.462,0.809,0.765,��,1.5,��
2018/09/12,21:40,0.787,1.183,0.827,1.466,1.063,0.462,0.809,0.765,�쐼,1.9,��
2018/09/12,21:50,0.785,1.179,0.827,1.467,1.065,0.461,0.809,0.766,��쐼,1.1,��
2018/09/12,22:00,0.787,1.179,0.828,1.469,1.066,0.461,0.805,0.765,�쐼,1.4,��
2018/09/12,22:10,0.784,1.181,0.827,1.466,1.064,0.462,0.806,0.766,���쐼,1.9,��
2018/09/12,22:20,0.787,1.181,0.826,1.469,1.064,0.462,0.807,0.765,���쐼,2.0,��
2018/09/12,22:30,0.788,1.181,0.828,1.469,1.065,0.462,0.807,0.766,���쐼,1.9,��
2018/09/12,22:40,0.787,1.171,0.828,1.470,1.063,0.463,0.807,0.766,���쐼,1.5,��
2018/09/12,22:50,0.787,1.162,0.827,1.466,1.063,0.464,0.807,0.766,���쐼,1.5,��
2018/09/12,23:00,0.787,1.171,0.828,1.468,1.063,0.464,0.806,0.767,�쐼,2.2,��
2018/09/12,23:10,0.787,1.183,0.827,1.469,1.063,0.463,0.808,0.767,�쐼,2.0,�L
2018/09/12,23:20,0.787,1.179,0.829,1.467,1.062,0.461,0.808,0.767,�쐼,2.0,��
2018/09/12,23:30,0.785,1.180,0.831,1.470,1.064,0.461,0.809,0.766,�쐼,2.0,��
2018/09/12,23:40,0.786,1.179,0.828,1.467,1.063,0.461,0.807,0.767,�쐼,2.5,��
2018/09/12,23:50,0.786,1.181,0.828,1.468,1.063,0.462,0.809,0.765,�쐼,2.3,��
